{"data":{"norad_id":58528,"epoch":"2026-09-20T05:16:52.777920Z","epoch_age_seconds":170936,"freshness":"FRESH","line1":"1 58528U 23191W   26263.22005530 -.00000045  00000+0  79215-5 0  9998","line2":"2 58528  43.0072  84.7058 0001962 264.7492  95.3136 15.27579812155229","mean_motion":15.27579812,"eccentricity":0.0001962,"inclination_deg":43.0072,"raan_deg":84.7058,"arg_perigee_deg":264.7492,"mean_anomaly_deg":95.3136,"bstar":7.9215e-6,"rev_number":15522,"period_min":94.266760315107,"perigee_km":481.70349415685,"apogee_km":484.39582380184,"semimajor_km":6861.1866589793,"source":"CELESTRAK","updated_at":"2026-09-21T09:00:33.910916Z"}}